Regional Weather Roundup
Issued by NWS

Home | Current Version | Previous Version | Graphics & Text | Print | Product List | Glossary On
Versions: 1 2 3 4 5 6 7 8 9 10 11 12 13 14 15 16 17 18 19 20 21 22 23 24 25 26 27 28 29 30 31 32 33 34 35 36 37 38 39 40 41 42 43 44 45 46 47 48 49 50
000
ASUS43 KLSX 192307
RWRMO

WEATHER SUMMARY FOR MISSOURI
NATIONAL WEATHER SERVICE SPRINGFIELD MO
500 PM CST FRI DEC 19 2014

NOTE: "FAIR" INDICATES FEW OR NO CLOUDS BELOW 12,000 FEET WITH NO
       SIGNIFICANT WEATHER AND/OR OBSTRUCTIONS TO VISIBILITY.
       CURRENT SKY AND/OR WEATHER CONDITIONS ARE NOT AVAILABLE FOR
       CHILLICOTHE AND FARMINGTON.

MOZ001>031-035>038-043-044-053-054-200000-
...NORTHERN AND WESTERN MISSOURI...

CITY           SKY/WX    TMP DP  RH WIND       PRES   REMARKS
KANSAS CTY INT CLOUDY    32  30  92 CALM      30.20S FOG
KANSAS C DTWN  CLOUDY    35  30  82 CALM      30.21S
LEE`S SUMMIT   CLOUDY    35  31  85 CALM      30.20F
ST JOSEPH      CLOUDY    32  29  88 SW8       30.22S WCI  25
CHILLICOTHE      N/A     34  31  88 CALM      30.23S
KIRKSVILLE     CLOUDY    32  30  92 E7        30.23R FOG     WCI  26

$$
MOZ066>068-077>081-088>096-101>105-200000-
...SOUTHWEST MISSOURI...

CITY           SKY/WX    TMP DP  RH WIND       PRES   REMARKS
SPRINGFIELD    CLOUDY    39  36  89 SE7       30.18R
JOPLIN         CLOUDY    39  38  96 CALM      30.20R FOG

$$
MOZ032>034-039>042-045>050-055>058-069>072-200000-
...CENTRAL MISSOURI...

CITY           SKY/WX    TMP DP  RH WIND       PRES   REMARKS
COLUMBIA       CLOUDY    36  32  85 E6        30.23R
JEFFERSON CITY CLOUDY    38  31  76 E6        30.24S
ROLLA          CLOUDY    35  31  85 E5        30.20R
SEDALIA        CLOUDY    37  34  89 SE5       30.22S
WHITEMAN AFB   CLOUDY    37  34  90 SE3       30.20F
WARRENSBURG    CLOUDY    34  32  93 N3        30.21S FOG
OSAGE BEACH    CLOUDY    37  34  87 E3        30.21S

$$
MOZ051-052-059>065-200000-
...EAST CENTRAL MISSOURI...

CITY           SKY/WX    TMP DP  RH WIND       PRES   REMARKS
ST LOUIS INTL  CLOUDY    38  28  67 E6        30.27S
SPIRIT OF STL  CLOUDY    36  29  75 CALM      30.26S HAZE
ST CHARLES     CLOUDY    36  30  79 E3        30.27F

$$
MOZ072>076-082>087-097>100-106>115-200000-
...SOUTH CENTRAL AND SOUTHEAST MISSOURI...

CITY           SKY/WX    TMP DP  RH WIND       PRES   REMARKS
CAPE GIRARDEAU CLOUDY    38  31  76 NE3       30.26S
FARMINGTON     CLOUDY    36  30  80 N5        30.26S
POPLAR BLUFF   CLOUDY    38  30  73 NE8       30.23F
WEST PLAINS    CLOUDY    35  33  92 NE3       30.20S

$$


USA.gov is the U.S. government's official web portal to all federal, state and local government web resources and services.